Weather History for Monte Cimone, Italy

Change the Weather History Date:

Tuesday, February 19, 2013

  Actual Average Record
Temperature  
Mean Temperature 21 °F -  
Max Temperature 28 °F 29 °F 44 °F (1998)
Min Temperature 14 °F 21 °F 5 °F (2003)
Degree Days  
Heating Degree Days 44    
Moisture  
Dew Point 10 °F    
Average Humidity 59    
Maximum Humidity 79    
Minimum Humidity 39    
Precipitation  
Precipitation 0.00 in 0.07 in - ()
Sea Level Pressure  
Sea Level Pressure 29.78 in    
Wind  
Wind Speed 11 mph ()    
Max Wind Speed 20 mph    
Max Gust Speed -    
Visibility 12.0 miles    
Events      
Averages and records for this station are not official NWS values.
T = Trace of Precipitation, MM = Missing Value Source: Averaged Metar Reports

Daily Weather History Graph

Daily Weather History Graph

Search for Another Location

Airport:

Trip Planner

Search our weather history database for the weather conditions in past years. The results will help you decide how hot, cold, wet, or windy it might be!

Date:

Astronomy

Feb. 19, 2013 Rise Set
Actual Time 7:10 AM CET 5:52 PM CET
Civil Twilight 6:41 AM CET 6:21 PM CET
Nautical Twilight 6:07 AM CET 6:55 PM CET
Astronomical Twilight 5:33 AM CET 7:28 PM CET
Moon 12:03 PM CET (2/19) 2:34 AM CET (2/19)
Length of Visible Light 11h 40m
Length of Day
10h 41m
Waxing Gibbous, 65% of the Moon is Illuminated
Feb 19
Waxing Gibbous
Feb 25
Full
Mar 4
Last Quarter
Mar 11
New
Mar 19
First Quarter

Hourly Weather History & Observations

Time (CET) Temp. Windchill Dew Point Humidity Pressure Visibility Wind Dir Wind Speed Gust Speed Precip Events Conditions
12:55 AM 14.0 °F 2.0 °F 8.6 °F 79% 29.83 in - North 9.2 mph - N/A   Clear
1:00 AM 15 °F - 9 °F 66%  in 12 mi North 9.2 mph - -  
1:55 AM 15.8 °F 1.4 °F 8.6 °F 73% 29.80 in - North 13.8 mph - N/A   Clear
2:55 AM 15.8 °F 0.3 °F 8.6 °F 73% 29.80 in - North 16.1 mph - N/A   Clear
3:55 AM 15.8 °F -0.2 °F 6.8 °F 68% 29.80 in - North 17.3 mph - N/A   Clear
4:55 AM 15.8 °F 1.4 °F 6.8 °F 68% 29.80 in - North 13.8 mph - N/A   Clear
5:55 AM 15.8 °F 1.4 °F 6.8 °F 68% 29.77 in - North 13.8 mph - N/A   Clear
6:55 AM 15.8 °F 1.4 °F 6.8 °F 68% 29.77 in - North 13.8 mph - N/A   Clear
7:00 AM 16 °F - 7 °F 56%  in 12 mi North 13.8 mph - -  
7:55 AM 17.6 °F 5.7 °F 6.8 °F 63% 29.80 in - North 10.4 mph - N/A   Clear
8:55 AM 21.2 °F 10.9 °F 8.6 °F 58% 29.80 in - North 9.2 mph - N/A   Clear
9:55 AM 23.0 °F 13.9 °F 10.4 °F 59% 29.80 in - North 8.1 mph - N/A   Clear
10:55 AM 24.8 °F 16.1 °F 8.6 °F 50% 29.80 in - North 8.1 mph - N/A   Clear
11:55 AM 24.8 °F 16.9 °F 6.8 °F 46% 29.83 in - North 6.9 mph - N/A   Clear
12:55 PM 24.8 °F 17.9 °F 14.0 °F 64% 29.83 in - North 5.8 mph - N/A   Clear
1:55 PM 26.6 °F 20.0 °F 14.0 °F 59% 29.80 in - North 5.8 mph - N/A   Clear
2:55 PM 28.4 °F 19.7 °F 17.6 °F 64% 29.77 in - WSW 9.2 mph - N/A   Clear
3:55 PM 28.4 °F 19.7 °F 14.0 °F 55% 29.77 in - WSW 9.2 mph - N/A   Clear
4:55 PM 26.6 °F 13.1 °F 10.4 °F 51% 29.74 in - West 19.6 mph - N/A   Clear
5:55 PM 24.8 °F 11.5 °F 8.6 °F 50% 29.71 in - West 17.3 mph - N/A   Clear
6:55 PM 24.8 °F 11.5 °F 10.4 °F 54% 29.74 in - West 17.3 mph - N/A   Clear
7:00 PM 25 °F - 10 °F 39%  in 31 mi West 17.3 mph - -  
7:55 PM 26.6 °F 13.4 °F 10.4 °F 51% 29.74 in - West 18.4 mph - N/A   Clear
8:55 PM 26.6 °F 13.8 °F 12.2 °F 55% 29.71 in - West 17.3 mph - N/A   Clear
9:55 PM 26.6 °F 13.8 °F 12.2 °F 55% 29.74 in - West 17.3 mph - N/A   Clear
10:55 PM 28.4 °F 16.2 °F 14.0 °F 55% 29.74 in - West 17.3 mph - N/A   Clear
11:55 PM 28.4 °F 16.2 °F 15.8 °F 59% 29.74 in - West 17.3 mph - N/A   Clear